AKDT,Max TemperatureF,Mean TemperatureF,Min TemperatureF,Max Dew PointF,MeanDew PointF,Min DewpointF,Max Humidity, Mean Humidity, Min Humidity, Max Sea Level PressureIn, Mean Sea Level PressureIn, Min Sea Level PressureIn, Max VisibilityMiles, Mean VisibilityMiles, Min VisibilityMiles, Max Wind SpeedMPH, Mean Wind SpeedMPH, Max Gust SpeedMPH,PrecipitationIn, CloudCover, Events, WindDirDegrees
2013-5-1,42,31,21,18,15,11,66,53,36,29.91,29.78,29.65,10,10,5,9,5,,0.00,6,Snow,97
2013-5-2,39,30,21,18,16,14,86,66,43,29.98,29.83,29.73,10,6,2,8,3,,0.00,7,Snow,279
2013-5-3,37,32,28,27,23,18,86,71,56,30.00,29.92,29.84,10,9,3,6,1,,0.01,8,Rain-Snow,46
2013-5-4,34,29,24,26,22,17,86,78,66,29.93,29.83,29.77,10,3,0,12,5,20,0.18,8,Snow,285
2013-5-5,42,30,19,19,16,10,93,64,29,30.12,30.06,29.97,10,8,2,8,2,,0.00,6,Snow,31
2013-5-6,43,26,10,15,10,5,84,48,22,30.18,30.14,30.12,10,10,10,12,2,,0.00,0,,338
2013-5-7,48,32,19,17,12,10,71,43,22,30.26,30.22,30.17,10,10,10,8,1,,0.00,5,,330
2013-5-8,46,32,17,17,14,12,81,47,24,30.37,30.27,30.23,10,10,10,12,2,17,0.00,2,,305
2013-5-9,55,36,18,20,16,13,81,44,21,30.44,30.36,30.26,10,10,10,10,3,18,0.00,0,,164
2013-5-10,63,48,32,27,22,16,67,39,21,30.27,30.10,29.94,10,10,10,10,2,18,0.00,3,,147
2013-5-11,55,44,34,32,28,24,70,52,35,29.92,29.75,29.60,10,10,10,9,1,,0.00,7,,281
2013-5-12,55,44,35,33,27,22,79,52,29,29.59,29.49,29.40,10,10,10,9,2,,0.00,5,,345
2013-5-13,39,34,28,34,27,21,93,80,67,29.58,29.49,29.42,10,5,1,17,4,26,0.12,8,Rain-Snow,303
2013-5-14,42,34,25,23,17,12,78,52,32,29.65,29.62,29.59,10,10,10,6,2,,0.00,5,,16
2013-5-15,52,38,27,23,20,17,81,50,28,29.68,29.66,29.63,10,10,10,12,2,26,0.00,4,,80
2013-5-16,57,42,27,31,20,15,78,42,20,29.72,29.62,29.49,10,10,10,13,4,22,0.00,2,,154
2013-5-17,63,45,28,32,26,24,85,44,25,29.47,29.39,29.32,10,10,10,13,5,28,0.00,2,,139
2013-5-18,46,35,24,31,24,19,82,76,50,30.09,29.80,29.36,10,3,1,13,9,23,0.10,8,Rain-Snow,291
2013-5-19,39,30,24,20,17,10,84,63,32,30.56,30.33,30.12,10,6,1,9,6,17,0.04,8,Snow,306
2013-5-20,53,34,18,18,15,13,81,45,24,30.65,30.58,30.49,10,10,10,6,1,,0.00,0,,6
2013-5-21,61,42,23,21,18,16,81,40,18,30.52,30.39,30.24,10,10,10,12,3,18,0.00,0,,146
2013-5-22,64,44,25,25,23,19,78,41,19,30.25,30.10,29.96,10,10,10,12,3,20,0.00,0,,123
2013-5-23,66,46,27,29,25,22,81,45,20,30.06,30.00,29.99,10,10,10,8,2,,0.00,1,,50
2013-5-24,71,49,28,29,26,22,81,42,18,30.15,30.09,30.02,10,10,10,14,2,,0.00,0,,46
2013-5-25,75,52,30,32,29,24,79,39,18,30.07,29.96,29.86,10,10,10,9,2,,0.00,1,,78
2013-5-26,75,54,32,41,36,27,82,40,21,29.93,29.87,29.81,10,10,10,8,2,18,0.00,1,,88
2013-5-27,80,57,35,40,34,29,85,45,17,29.92,29.85,29.78,10,10,10,9,1,16,0.00,0,,61
2013-5-28,75,54,34,40,35,30,89,46,21,29.83,29.76,29.69,10,10,10,12,3,18,0.00,0,,53
2013-5-29,79,56,35,53,41,32,89,57,29,29.77,29.73,29.67,10,10,9,14,2,31,0.00,2,Rain,142
2013-5-30,79,58,37,50,43,35,93,55,27,29.89,29.82,29.79,10,10,10,9,2,20,0.00,1,,114
2013-5-31,81,60,39,47,44,38,93,53,28,29.95,29.91,29.87,10,10,10,10,3,20,0.00,1,,100